GW0187 Weather Reports


time (UTC)temp
C
wind
direction
speed
KPH
gust
KPH
rain 1hr
cm
rain 24hr
cm
rain mn
cm
humidity
%
barometer
mb
20260506184551 21 169 6.4 14.5 0.00 0.00 0.00 53 1019.4
20260506183056 21 229 3.2 11.3 0.00 0.00 0.00 55 1019.4
20260506181549 20 0 1.6 12.9 0.00 0.00 0.00 59 1019.4
20260506180052 21 157 3.2 11.3 0.00 0.00 0.00 57 1019.4
20260506174550 20 265 3.2 11.3 0.00 0.00 0.00 58 1019.4
20260506173105 20 217 3.2 11.3 0.00 0.00 0.00 58 1019.5
20260506171553 19 126 3.2 12.9 0.00 0.00 0.00 57 1019.4
20260506170058 19 208 3.2 9.7 0.00 0.00 0.00 59 1019.5
20260506164609 18 204 4.8 11.3 0.00 0.03 0.00 62 1019.5
20260506163047 18 134 3.2 11.3 0.00 0.03 0.00 63 1019.6
20260506161546 17 240 3.2 12.9 0.00 0.03 0.00 64 1019.7
20260506160050 17 0 3.2 8.0 0.00 0.03 0.00 64 1019.8
20260506154554 17 191 1.6 4.8 0.00 0.03 0.00 67 1019.8
20260506153049 17 138 3.2 6.4 0.00 0.03 0.00 67 1019.8
20260506151549 16 130 1.6 4.8 0.00 0.03 0.00 69 1019.9
20260506150047 15 329 0.0 3.2 0.00 0.03 0.00 76 1019.9
20260506144549 13 0 0.0 3.2 0.00 0.03 0.00 81 1019.8
20260506143049 11 0 1.6 6.4 0.00 0.03 0.00 86 1019.8
20260506141606 10 0 0.0 0.0 0.00 0.03 0.00 92 1019.6
20260506140052 9 0 0.0 1.6 0.00 0.03 0.00 93 1019.6
20260506134549 8 0 0.0 1.6 0.00 0.05 0.00 93 1019.5
20260506133105 7 0 0.0 3.2 0.00 0.05 0.00 92 1019.2
20260506131555 7 347 0.0 4.8 0.00 0.05 0.00 92 1019.0
20260506130048 6 0 0.0 0.0 0.00 0.05 0.00 92 1019.0
20260506124548 6 0 0.0 0.0 0.00 0.05 0.00 91 1018.7
20260506123052 7 0 0.0 0.0 0.00 0.05 0.00 91 1018.6
20260506121555 7 0 0.0 0.0 0.00 0.05 0.00 91 1018.5
20260506120116 7 0 0.0 0.0 0.00 0.05 0.00 91 1018.5
20260506114550 7 0 0.0 0.0 0.00 0.05 0.00 91 1018.4
20260506113048 7 0 0.0 0.0 0.00 0.05 0.00 90 1018.3
20260506111549 7 0 0.0 0.0 0.00 0.05 0.00 91 1018.2
20260506110048 7 0 0.0 0.0 0.00 0.05 0.00 90 1018.3
20260506104548 8 0 0.0 0.0 0.00 0.05 0.00 90 1018.1
20260506103053 8 0 0.0 0.0 0.00 0.05 0.00 90 1018.1
20260506101552 8 0 0.0 0.0 0.00 0.05 0.00 90 1017.8
20260506100046 8 0 0.0 0.0 0.00 0.05 0.00 89 1017.9
20260506094549 8 0 0.0 0.0 0.00 0.05 0.00 89 1017.7
20260506093049 8 0 0.0 0.0 0.00 0.05 0.00 89 1017.6
20260506091547 8 0 0.0 0.0 0.00 0.05 0.00 89 1017.5
20260506090048 8 0 0.0 0.0 0.00 0.05 0.00 90 1017.8
20260506084548 8 0 0.0 0.0 0.00 0.05 0.00 91 1018.0
20260506083053 8 0 0.0 0.0 0.00 0.05 0.00 91 1018.0
20260506081554 7 0 0.0 0.0 0.00 0.05 0.00 90 1018.0
20260506073057 7 0 0.0 0.0 0.00 0.05 0.00 89 1017.8
20260506071554 7 0 0.0 0.0 0.00 0.05 0.00 88 1017.6
20260506070114 8 0 0.0 0.0 0.00 0.05 0.00 88 1017.3
20260506061549 8 0 0.0 0.0 0.00 0.05 0.05 88 1017.0
20260506044559 10 0 0.0 0.0 0.00 0.05 0.05 83 1016.3
20260506043053 10 0 0.0 0.0 0.00 0.05 0.05 84 1016.2
20260506041556 11 0 0.0 0.0 0.00 0.05 0.05 82 1015.8
20260506040100 11 0 0.0 0.0 0.00 0.05 0.05 81 1015.7
20260506034554 11 0 0.0 0.0 0.00 0.05 0.05 78 1015.5
20260506033049 12 0 0.0 0.0 0.00 0.05 0.05 77 1015.3
20260506031600 13 0 0.0 0.0 0.00 0.05 0.05 75 1015.1
20260506030111 13 0 0.0 0.0 0.00 0.05 0.05 72 1015.0
20260506024554 15 0 0.0 0.0 0.00 0.05 0.05 69 1014.9
20260506023049 16 0 0.0 3.2 0.00 0.05 0.05 65 1014.7
20260506021550 16 327 3.2 6.4 0.00 0.05 0.05 62 1014.6
20260506020052 17 348 1.6 6.4 0.00 0.05 0.05 61 1014.4
20260506014600 17 349 0.0 4.8 0.00 0.05 0.05 60 1014.3
20260506013054 17 335 1.6 8.0 0.00 0.05 0.05 60 1014.3
20260506011558 17 321 3.2 8.0 0.00 0.05 0.05 58 1014.5
20260506010058 17 331 3.2 12.9 0.00 0.05 0.05 58 1014.5
20260506004625 17 14 4.8 9.7 0.00 0.05 0.05 58 1014.5
20260506003048 17 311 0.0 8.0 0.00 0.05 0.05 57 1014.5
20260506001555 17 335 3.2 12.9 0.00 0.05 0.05 59 1014.5
20260506000050 17 331 3.2 11.3 0.00 0.05 0.05 58 1014.5
20260505234612 17 337 3.2 8.0 0.00 0.05 0.05 57 1014.4
20260505233051 17 280 1.6 12.9 0.00 0.05 0.05 56 1014.5
20260505231559 17 310 3.2 8.0 0.00 0.05 0.05 57 1014.4
20260505230052 17 266 3.2 9.7 0.00 0.05 0.05 56 1014.4
20260505224549 17 285 1.6 6.4 0.00 0.05 0.05 56 1014.4
20260505223101 18 253 3.2 8.0 0.00 0.05 0.05 55 1014.5
20260505221607 18 237 0.0 8.0 0.00 0.05 0.05 54 1014.6
20260505220133 18 209 1.6 8.0 0.00 0.05 0.05 54 1014.5
20260505214609 17 292 4.8 14.5 0.00 0.05 0.05 56 1014.6
20260505213049 17 272 3.2 16.1 0.00 0.05 0.05 55 1014.6
20260505211559 17 298 3.2 12.9 0.00 0.05 0.05 55 1014.6
20260505210051 17 225 3.2 9.7 0.00 0.05 0.05 57 1014.5
20260505204550 17 242 4.8 14.5 0.00 0.05 0.05 55 1014.4
20260505203054 18 285 3.2 14.5 0.00 0.05 0.05 54 1014.4
20260505201601 18 206 4.8 14.5 0.00 0.05 0.05 54 1014.4
20260505200100 18 165 4.8 14.5 0.00 0.05 0.05 57 1014.5
20260505194601 17 206 3.2 14.5 0.00 0.05 0.05 60 1014.6
20260505193049 17 283 3.2 16.1 0.00 0.05 0.05 62 1014.8
20260505191553 17 229 3.2 14.5 0.00 0.05 0.05 67 1014.8
20260505190051 17 238 6.4 14.5 0.00 0.05 0.05 64 1014.8